Powrót do katalogu

STARLINK-31394

AktywnyŁącznośćVLEO
NORAD 59185·PAYLOAD·🇺🇸 United States

Wystrzelony Mar 10, 2024 z Cape Canaveral Space Force Station

Loading…

Następne Przeloty (najbliższe 24 godziny)

TLE

ŚwieżeSource: CelesTrak SupGP

Epoka: Sep 15, 2026, 02:26 UTC

1 59185C 24045H   26258.10187500  .00014323  00000+0  51864-3 0  2585
2 59185  43.0018  92.3465 0001472 271.3697 355.0448 15.27580875    12

Śledź STARLINK-31394 w czasie rzeczywistym z AllMySat

Download on the App Store